Flag for Switzerland Weather past 2 weeks in Meilen, Zurich, Switzerland

Now
36 °F

Chilly.


Feels Like: 31 °F
Forecast: 25 / 59 °F
Wind: 6 mph from Northeast

Location: Zurich Town / Ville.


UV Index: 3 (Moderate)

Visibility: N/A


Pressure: 30.33 "Hg

Humidity: 65%

Dew point: 25 °F

Location of MeilenLocation

Historic Weather in Meilen

°F

Meilen temperature yesterday

Maximum temperature yesterday: 51 °F (at 5:00 PM)
Minimum temperature yesterday: 39 °F (at 8:00 AM)
Average temperature yesterday: 45 °F

Past Weeks' High & Low Weather Summary

 TemperatureHumidityPressure
High69 °F (Apr 2, 6:00 PM)98% (Apr 6, 6:00 AM)30.34 "Hg (Apr 6, 6:00 AM)
Low36 °F (Apr 16, 6:00 AM)22% (Apr 2, 3:00 PM)29.63 "Hg (Apr 3, 4:00 PM)
Average54 °F62%30.01 "Hg
* Reported Apr 1 6:00 AM — Apr 16 6:00 AM, Meilen, Weather by CustomWeather, © 2014

Note: Actual official high and low records may vary slightly from our data, if they occured in-between our weather recording intervals... More about our weather records

Advertising

Historic Weather Conditions — Data for Previous 24 hours

 ConditionsComfort  
Time TempWeatherWind HumidityBarometerVisibility
6:00 AM
Apr 16
36 °FChilly.6 mph65%30.33 "HgN/A
5:00 AM37 °FChilly.6 mph60%30.33 "HgN/A
4:00 AM39 °FChilly.3 mph57%30.32 "HgN/A
3:00 AM40 °FChilly.2 mph52%30.32 "HgN/A
2:00 AM40 °FChilly.2 mph52%30.32 "HgN/A
11:00 PM
Apr 15
42 °FQuite cool.7 mph48%30.30 "HgN/A
10:00 PM44 °FQuite cool.9 mph46%30.28 "HgN/A
9:00 PM47 °FCool.3 mph40%30.24 "HgN/A
8:00 PM47 °FCool.6 mph38%30.22 "HgN/A
7:00 PM49 °FCool.5 mph37%30.20 "HgN/A
6:00 PM50 °FCool.5 mph34%30.20 "HgN/A
5:00 PM51 °FCool.5 mph35%30.20 "HgN/A
4:00 PM50 °FCool.3 mph33%30.20 "HgN/A
3:00 PM49 °FCool.3 mph36%30.22 "HgN/A
2:00 PM45 °FScattered clouds.5 mph37%30.25 "Hg14 mi
1:00 PM46 °FCool.3 mph44%30.24 "HgN/A
12:00 PM45 °FQuite cool.2 mph49%30.25 "HgN/A
10:00 AM42 °FQuite cool.7 mph54%30.26 "HgN/A
9:00 AM40 °FQuite cool.8 mph59%30.27 "HgN/A
8:00 AM39 °FPartly sunny.8 mph63%30.26 "Hg9 mi
Weather by CustomWeather, © 2014

See weather overview